Zurück zum Katalog

TIANXIANG 1

AktivKommunikationVLEO
NORAD 44310·PAYLOAD·🇨🇳 China
Dieser Satellitenname wurde noch nicht durch offizielle Quellen bestätigt.

Gestartet Jun 5, 2019 von Yellow Sea Launch Area

Loading…

Nächste Überflüge (nächste 24 Stunden)

TLE

AktuellSource: Space-Track

Epoche: Sep 14, 2026, 18:35 UTC

1 44310U 19032A   26257.77452190  .00006973  00000-0  24589-3 0  9990
2 44310  44.9698 286.3206 0009735  45.5473 314.6205 15.29939798400909

Verfolge TIANXIANG 1 in Echtzeit mit AllMySat

Download on the App Store